Temperature
21 22 21 22 22 22 22 21 21 20 20 20 20 20 20 19 19 19 20 20 20 19 19 18 18 18 18 17 17 17 17 17 16 16 16 16 15 15 15 15 15 15 15 15
22 21 21 22 22 22 22 21 20 20 20 20 20 20 20 20 19 19 20 20 20 19 19 18 18 18 18 18 17 17 17 17 16 16 16 15 15 15 15 15 15 15 15 15
22 21 21 22 21 22 22 21 21 20 20 20 21 20 20 20 19 19 19 19 19 19 19 19 18 18 18 17 17 17 17 17 16 16 16 15 15 15 15 15 15 15 14 14
21 21 21 22 21 22 21 21 21 21 21 20 21 21 21 21 20 20 19 19 19 19 19 18 18 18 18 17 17 17 17 17 16 16 16 15 15 15 15 15 15 15 15 14
21 21 22 21 21 22 21 21 21 21 21 21 22 22 22 21 21 21 20 20 19 19 18 18 18 18 18 17 17 17 17 16 16 16 16 15 15 15 15 15 15 14 14 14
21 21 22 22 21 22 21 21 21 21 22 21 22 22 22 22 22 22 21 20 19 19 18 18 18 18 17 17 17 17 17 16 16 16 16 15 15 15 15 14 14 14 14 14
21 21 21 21 21 21 22 22 21 21 21 22 22 22 22 23 23 23 22 21 20 19 18 18 17 17 17 17 17 17 17 16 16 16 15 15 15 15 14 14 14 14 14 14
22 21 22 22 22 22 22 22 22 21 22 22 22 22 24 23 22 21 21 20 19 19 18 18 17 17 17 17 17 17 16 16 16 16 15 15 15 15 14 14 14 14 14 14
23 22 21 22 22 23 22 22 23 23 23 22 23 23 23 22 22 21 21 20 19 19 18 18 17 17 17 17 17 17 16 16 16 15 15 15 15 14 14 14 14 14 14 14
24 22 22 21 22 21 23 23 23 23 22 22 23 23 24 23 22 22 21 20 20 19 18 17 17 17 17 17 17 16 16 16 16 15 15 15 14 14 14 14 14 14 14 14
23 23 22 22 22 22 22 22 23 23 23 23 23 24 25 25 24 23 22 21 20 19 18 17 17 17 17 17 17 16 16 16 15 15 15 15 15 14 14 14 14 14 14 13
23 24 23 23 23 23 23 23 23 23 23 23 23 24 24 24 24 23 22 21 19 19 18 17 17 17 17 17 16 16 16 15 15 15 15 15 15 14 14 14 14 13 13 13
23 23 23 22 22 22 22 23 23 23 23 23 23 24 24 24 23 22 22 20 19 18 17 17 17 17 17 16 16 16 16 15 15 15 15 15 14 14 14 14 13 13 13 13
23 24 24 23 24 23 23 22 22 23 23 24 24 25 25 24 24 23 21 20 19 18 17 17 17 17 17 16 16 16 15 15 15 15 15 15 14 14 14 14 13 13 13 13
23 24 24 24 24 23 23 23 23 23 24 24 25 25 25 25 24 23 21 20 19 18 17 17 17 17 16 16 16 16 16 15 15 15 15 15 14 14 14 13 13 13 13 13
23 24 24 24 24 23 23 23 23 23 24 24 24 24 26 25 24 22 21 20 19 18 18 17 17 17 17 17 16 16 16 15 15 15 15 15 14 14 14 13 13 13 13 13
24 24 24 24 24 23 23 24 24 24 24 24 24 25 25 24 23 22 21 20 19 19 18 18 17 17 17 17 16 16 16 15 15 15 15 15 14 14 13 13 13 13 13 12
24 24 24 24 23 22 25 25 24 24 24 25 25 25 24 23 22 21 21 20 19 19 18 18 18 17 17 16 16 16 16 15 15 15 14 14 14 14 13 13 13 13 12 12
23 23 23 23 23 24 25 24 24 24 24 25 24 24 23 21 21 21 20 20 20 19 18 18 17 17 17 16 16 16 15 15 15 14 14 14 14 14 13 13 13 13 12 12
21 22 23 23 22 23 24 24 23 24 24 25 24 23 22 21 23 24 21 20 19 19 18 18 17 17 17 16 16 16 15 15 15 14 14 14 14 14 13 13 13 12 12 12
21 21 22 22 23 24 24 22 22 23 24 23 23 22 21 22 24 22 20 20 19 19 18 18 18 17 17 17 16 15 15 15 15 14 14 14 13 13 13 13 12 12 12 12
23 22 22 22 22 23 22 22 23 24 23 22 22 21 21 21 20 20 20 19 19 18 18 18 18 17 17 16 16 15 15 15 14 14 14 13 13 13 13 13 12 12 12 11
22 23 23 23 23 22 20 21 21 20 21 21 21 20 20 20 19 19 19 19 18 18 18 18 17 17 17 16 16 15 15 15 14 14 13 13 13 13 13 12 12 12 11 11
22 20 21 22 22 21 20 19 19 19 20 20 20 19 19 19 19 19 19 18 18 18 18 17 17 17 17 16 16 15 15 15 14 13 13 13 13 12 12 12 12 11 11 11
20 19 21 21 22 21 20 19 19 19 19 19 19 19 19 19 19 18 18 18 18 18 17 17 17 16 16 16 16 15 15 14 14 13 13 12 12 12 12 11 11 11 11 11
20 20 21 21 21 21 21 19 19 19 19 19 19 19 19 18 18 18 18 18 18 17 17 17 17 16 16 15 15 15 14 14 13 13 12 12 12 12 11 11 11 11 11 10
Wind_Speed
3 4 5 5 3 5 7 7 8 5 3 3 6 7 7 7 7 7 7 7 7 7 6 5 4 4 4 5 4 4 4 3 3 2 1 2 3 3 4 5 7 7 7 7
6 4 4 5 6 6 8 9 8 6 4 4 6 5 5 6 6 6 7 8 8 8 7 6 5 5 5 5 5 4 3 3 2 2 2 2 2 3 4 4 6 7 7 7
4 5 5 7 8 7 5 6 8 7 6 5 5 5 6 6 6 6 6 7 8 9 9 8 7 6 6 5 5 4 3 3 3 3 2 2 2 2 3 4 4 6 7 8
3 4 5 6 6 5 4 5 7 9 7 4 5 4 7 9 9 8 8 9 9 9 8 7 7 6 6 5 4 4 4 3 3 3 2 2 2 3 3 3 3 5 6 7
4 4 5 5 4 3 4 6 7 6 5 4 5 4 6 8 10 12 11 10 10 10 9 8 7 7 6 6 5 4 4 4 3 3 3 2 3 3 2 2 3 4 5 7
4 3 1 3 4 6 10 8 6 5 4 4 5 4 4 8 10 11 12 12 11 10 9 8 7 7 7 6 5 5 5 4 4 3 3 3 4 3 3 2 3 3 3 4
5 4 4 5 8 8 8 7 4 4 4 3 4 4 4 6 8 10 12 12 12 11 10 9 9 9 8 8 7 6 6 5 4 4 3 3 3 3 3 2 3 2 3 4
6 6 6 5 4 6 9 6 3 2 3 3 4 5 3 4 5 8 9 11 11 11 10 10 10 10 9 9 8 7 6 5 5 4 4 3 3 2 2 2 2 2 3 3
4 5 5 3 2 5 6 5 2 2 2 3 4 3 3 5 7 9 11 11 12 12 11 11 10 10 10 9 8 8 7 6 5 5 4 4 3 3 3 2 2 2 2 2
2 5 6 5 5 1 2 3 4 4 3 3 3 5 5 9 10 11 12 12 12 12 12 11 10 10 9 8 8 8 7 7 6 5 4 3 3 3 3 2 2 2 2 3
4 5 7 7 7 7 6 5 5 4 4 3 2 2 2 6 9 12 12 12 12 13 12 11 10 10 9 9 8 8 7 7 6 6 5 5 4 4 3 3 2 2 2 2
4 3 6 6 2 2 6 7 8 6 4 4 4 2 2 4 7 10 11 11 11 12 12 11 11 10 10 10 9 9 8 7 7 6 6 5 5 5 4 4 3 2 2 2
6 4 5 6 5 6 7 8 9 7 6 6 6 2 4 4 6 8 9 11 11 12 12 11 11 11 10 10 9 9 8 7 7 6 6 6 6 6 5 4 3 2 2 2
5 5 6 4 1 5 8 10 11 11 8 9 9 7 5 6 7 8 10 11 11 12 13 12 12 11 10 10 10 9 8 8 7 7 7 6 6 6 5 4 3 2 1 1
6 6 7 6 4 5 8 10 13 15 13 11 10 9 9 7 7 8 10 11 12 13 14 14 13 12 11 11 10 9 8 8 8 8 7 6 6 6 5 4 4 3 2 2
6 6 6 7 6 8 9 11 13 14 14 14 13 13 9 7 6 8 10 12 14 14 14 14 14 13 13 12 11 10 9 9 8 8 7 6 6 6 6 5 4 3 3 2
7 7 6 7 4 6 10 11 13 12 12 12 13 11 7 6 8 10 11 13 14 14 14 15 15 14 13 12 12 11 10 9 9 8 7 7 7 7 6 6 5 4 3 3
7 8 6 6 6 9 4 1 6 11 12 12 12 9 8 7 7 8 9 11 13 13 14 14 13 13 12 12 11 11 10 10 9 8 7 7 7 6 6 5 5 4 4 3
6 7 6 7 9 9 6 4 6 8 8 9 11 9 6 3 5 6 8 9 11 11 12 12 12 12 12 12 12 11 11 10 9 9 8 7 7 7 6 6 5 4 4 3
4 7 8 7 8 8 4 1 3 5 6 3 5 5 5 7 6 5 6 8 8 8 9 10 11 12 12 12 12 12 11 11 10 9 8 8 7 7 7 6 5 5 4 4
6 7 10 11 11 8 3 3 6 6 2 2 2 4 8 9 5 2 5 7 8 8 9 10 11 11 11 12 12 12 11 11 10 8 8 7 7 7 6 6 5 5 4 4
8 7 9 8 9 7 3 6 6 3 3 1 2 3 6 6 2 2 5 7 8 9 10 11 11 10 10 12 12 12 11 10 9 8 8 7 7 6 6 6 5 5 5 5
8 7 5 6 5 1 3 4 3 4 5 4 3 3 5 5 4 4 6 7 8 9 10 10 10 10 10 12 12 12 10 9 9 9 8 7 7 7 6 6 6 5 5 5
5 3 5 6 7 5 5 6 7 7 7 6 5 5 5 6 6 5 6 7 8 9 9 10 11 11 11 11 11 11 10 10 10 10 9 8 8 7 7 6 6 5 5 5
4 5 5 7 7 5 5 5 5 5 6 6 5 5 6 7 6 6 6 7 7 8 8 9 10 11 11 11 11 10 10 11 11 10 9 8 7 7 7 7 6 7 6 6
6 6 6 7 6 6 6 5 5 5 5 5 4 4 5 6 7 7 6 6 7 8 8 9 9 10 10 10 11 10 10 11 11 9 9 7 7 6 6 6 6 7 7 6
Wind_Direction
144 155 148 138 130 139 147 142 129 116 103 125 138 142 156 163 167 165 169 168 161 152 151 150 149 155 151 142 138 134 141 142 144 125 105 81 68 55 51 46 38 32 30 26
142 121 109 122 130 144 146 137 126 115 120 136 142 145 163 171 178 176 179 177 173 165 165 162 161 158 155 146 142 138 132 136 136 110 89 82 72 61 58 50 46 35 36 33
131 110 130 143 142 140 138 149 146 141 142 152 148 163 180 179 187 184 190 187 180 181 181 171 164 159 157 153 146 139 134 133 130 130 120 119 109 99 78 61 48 37 37 37
114 130 149 150 153 160 147 148 151 158 166 161 199 183 181 181 192 196 195 193 188 183 185 172 167 166 163 156 147 142 133 120 118 127 128 118 100 82 66 56 58 57 48 42
135 152 169 168 160 171 130 143 153 166 171 170 195 210 176 179 202 201 197 195 190 184 184 177 174 168 161 149 146 142 130 117 111 112 109 115 98 95 90 80 67 58 53 43
124 131 174 147 125 142 136 138 143 172 194 201 194 218 198 194 207 196 193 194 190 184 179 174 166 163 154 145 145 143 135 122 117 123 120 111 104 102 96 83 72 67 64 50
147 145 139 143 133 148 172 174 173 185 202 192 166 224 223 196 203 198 191 188 185 181 178 174 171 170 163 159 157 154 147 139 138 135 128 118 113 111 102 93 82 65 62 55
170 161 168 180 188 178 189 215 236 219 199 165 185 224 192 169 194 193 188 182 180 181 180 178 177 174 169 167 166 164 156 149 147 145 136 127 123 118 101 88 79 73 60 50
177 142 143 158 170 184 187 213 299 287 222 222 201 212 204 181 190 188 186 184 186 184 181 180 177 176 174 172 172 171 166 159 157 154 146 140 134 123 114 114 97 84 70 58
188 149 150 148 156 139 249 188 203 231 221 225 214 224 207 187 193 189 189 189 187 184 182 179 176 178 177 173 172 174 173 167 164 163 158 147 145 137 128 123 107 93 75 67
210 176 160 178 202 189 176 198 225 238 261 265 241 209 186 196 194 193 193 190 186 184 182 178 175 177 174 172 174 175 176 173 170 170 165 161 157 155 152 135 125 116 93 93
199 208 182 185 165 255 230 228 223 234 232 253 272 266 119 195 195 196 193 187 186 184 181 177 174 174 175 178 180 180 179 177 175 176 175 173 166 169 164 151 149 138 113 96
176 205 185 177 191 198 221 226 228 244 254 245 251 232 140 182 198 199 196 188 183 183 182 178 178 180 180 181 182 182 181 180 177 180 182 180 177 172 169 165 160 154 130 121
207 224 238 237 227 195 211 212 216 225 242 248 250 261 239 227 216 204 197 192 187 185 185 183 184 185 184 184 184 183 182 181 181 184 187 187 181 176 176 173 174 178 170 164
218 241 243 260 258 226 233 226 217 226 244 259 266 265 259 247 226 206 194 189 188 189 189 189 189 187 185 185 185 183 181 182 183 184 189 189 182 175 179 177 185 189 196 208
220 243 245 246 237 235 244 241 231 235 246 255 263 267 264 255 222 206 196 191 193 194 194 192 191 189 189 186 184 182 182 182 183 185 185 180 183 179 184 186 190 194 205 217
206 232 245 249 229 236 250 240 229 229 232 241 251 260 251 229 216 211 200 196 199 197 195 194 193 192 191 188 183 181 181 178 181 182 180 181 183 182 186 186 187 197 205 212
222 229 243 257 245 252 270 233 231 236 245 245 255 261 252 238 227 218 210 204 204 199 196 195 193 190 188 184 181 179 177 179 181 183 183 182 183 184 185 187 194 208 215 211
237 230 238 248 254 263 266 239 214 228 255 252 250 255 248 220 200 216 209 206 204 198 194 191 189 185 182 180 178 176 177 181 184 186 187 185 186 185 188 192 200 209 215 222
203 227 237 238 251 259 268 132 184 230 252 245 231 230 201 183 210 213 186 196 198 189 183 180 180 179 179 177 176 179 181 184 189 190 191 188 188 187 192 200 205 204 212 226
191 209 227 239 249 258 285 138 173 225 275 84 203 209 190 203 231 168 164 178 181 176 173 173 175 178 178 175 177 183 186 191 190 186 186 187 187 192 196 201 203 205 213 224
222 218 223 230 240 249 138 163 204 295 4 349 235 221 214 226 234 160 168 172 172 170 170 173 175 177 177 178 181 186 192 191 183 181 185 188 190 193 196 199 206 212 216 225
226 236 236 229 245 23 169 220 286 320 303 294 271 257 232 223 214 194 180 177 177 175 174 176 177 177 179 184 188 192 190 184 182 182 187 191 194 195 202 205 208 214 222 234
213 219 226 239 256 265 259 262 269 271 276 288 279 257 227 218 209 196 186 181 180 181 179 179 180 183 186 187 192 195 187 184 186 189 192 196 200 202 206 212 218 222 228 237
219 190 223 247 266 279 265 262 275 280 279 282 272 243 226 217 208 198 192 188 186 184 183 186 190 191 191 189 191 192 189 188 192 194 197 202 206 210 214 215 222 230 234 244
215 216 236 259 278 280 291 314 308 289 281 282 269 241 224 215 207 201 197 189 186 186 186 190 194 195 195 192 193 192 191 194 198 200 202 204 205 209 217 223 228 228 242 240
Height
1521 1521 1523 1523 1523 1524 1526 1530 1535 1540 1541 1541 1542 1545 1547 1550 1551 1551 1553 1555 1556 1558 1560 1562 1563 1564 1565 1566 1567 1567 1567 1567 1567 1566 1566 1566 1565 1564 1563 1562 1561 1560 1559 1557
1521 1525 1524 1524 1525 1525 1527 1532 1538 1541 1542 1543 1544 1546 1546 1549 1550 1551 1552 1554 1556 1558 1560 1561 1562 1563 1565 1566 1566 1567 1567 1567 1567 1566 1566 1566 1565 1565 1563 1562 1561 1561 1560 1558
1521 1526 1526 1526 1527 1528 1530 1532 1536 1541 1544 1543 1544 1548 1547 1547 1549 1551 1552 1553 1555 1557 1558 1560 1561 1563 1564 1565 1566 1566 1567 1566 1566 1566 1566 1565 1565 1565 1564 1563 1562 1561 1560 1559
1524 1526 1527 1527 1529 1529 1535 1533 1534 1538 1541 1544 1543 1549 1542 1543 1546 1548 1550 1552 1553 1555 1557 1559 1560 1562 1563 1564 1565 1566 1566 1566 1566 1566 1566 1566 1566 1565 1564 1564 1563 1562 1561 1560
1525 1526 1527 1528 1530 1530 1533 1534 1534 1536 1538 1541 1540 1542 1540 1540 1542 1543 1546 1549 1551 1553 1555 1557 1559 1560 1562 1563 1564 1565 1566 1566 1565 1565 1565 1565 1565 1565 1564 1564 1563 1563 1561 1560
1525 1528 1527 1528 1530 1531 1534 1536 1537 1536 1536 1545 1539 1541 1540 1535 1534 1536 1542 1546 1548 1551 1553 1555 1557 1559 1561 1562 1563 1564 1565 1565 1564 1564 1564 1564 1564 1564 1564 1563 1563 1563 1562 1561
1526 1527 1528 1529 1531 1534 1533 1537 1544 1547 1546 1543 1536 1539 1535 1527 1530 1533 1538 1542 1545 1548 1551 1553 1555 1557 1559 1560 1562 1563 1564 1564 1564 1564 1564 1564 1564 1564 1563 1563 1563 1563 1562 1561
1525 1530 1527 1528 1527 1529 1530 1531 1539 1546 1544 1538 1538 1537 1528 1527 1531 1534 1537 1540 1543 1546 1549 1551 1553 1555 1557 1559 1560 1562 1562 1563 1563 1563 1563 1563 1563 1563 1563 1562 1563 1563 1562 1561
1520 1526 1526 1528 1528 1527 1530 1529 1527 1530 1532 1537 1532 1528 1525 1527 1530 1532 1535 1538 1541 1543 1546 1549 1551 1553 1555 1557 1559 1560 1561 1562 1562 1562 1562 1562 1562 1562 1562 1562 1562 1562 1562 1561
1515 1524 1526 1528 1529 1530 1527 1526 1530 1532 1539 1539 1534 1528 1523 1523 1524 1528 1531 1534 1538 1541 1544 1546 1549 1551 1554 1555 1557 1558 1559 1560 1560 1561 1561 1561 1561 1561 1561 1561 1561 1561 1561 1560
1515 1519 1527 1527 1526 1526 1530 1530 1528 1527 1528 1534 1537 1527 1512 1514 1518 1522 1526 1530 1534 1538 1541 1543 1546 1549 1551 1553 1555 1556 1557 1558 1559 1559 1559 1559 1560 1560 1560 1560 1560 1560 1560 1560
1515 1515 1520 1522 1522 1523 1523 1522 1524 1530 1530 1528 1528 1524 1512 1514 1517 1520 1524 1528 1532 1535 1538 1541 1544 1546 1549 1551 1553 1554 1555 1556 1557 1557 1558 1558 1558 1558 1559 1559 1559 1560 1560 1560
1515 1516 1523 1527 1528 1526 1524 1522 1522 1522 1522 1524 1527 1521 1512 1514 1517 1519 1522 1526 1529 1533 1536 1538 1541 1544 1546 1548 1550 1552 1553 1554 1554 1555 1556 1556 1557 1557 1558 1559 1559 1559 1560 1560
1514 1511 1515 1522 1517 1515 1519 1520 1521 1521 1522 1519 1517 1513 1509 1511 1514 1517 1520 1523 1527 1530 1532 1535 1538 1540 1543 1545 1548 1549 1551 1552 1552 1553 1554 1555 1556 1556 1557 1557 1558 1558 1559 1559
1512 1509 1508 1508 1509 1512 1513 1514 1517 1517 1513 1514 1509 1509 1505 1506 1510 1514 1517 1520 1523 1526 1529 1531 1534 1537 1539 1542 1544 1546 1548 1549 1550 1551 1552 1553 1554 1555 1555 1556 1557 1557 1558 1558
1510 1508 1508 1509 1509 1510 1512 1510 1511 1512 1510 1509 1508 1506 1501 1504 1508 1511 1514 1517 1519 1521 1524 1527 1531 1534 1536 1539 1541 1543 1545 1546 1548 1549 1550 1551 1552 1553 1554 1555 1555 1556 1556 1556
1506 1506 1509 1508 1507 1510 1510 1501 1503 1504 1503 1504 1504 1500 1500 1503 1505 1507 1510 1512 1514 1517 1520 1523 1526 1529 1532 1535 1538 1540 1542 1544 1545 1547 1548 1549 1550 1551 1552 1553 1553 1554 1554 1554
1503 1504 1505 1506 1509 1517 1498 1493 1495 1498 1497 1497 1496 1496 1499 1501 1503 1505 1507 1509 1511 1514 1517 1520 1523 1526 1529 1532 1535 1537 1539 1541 1543 1544 1545 1546 1547 1549 1550 1550 1551 1551 1552 1552
1504 1504 1505 1506 1509 1503 1495 1493 1495 1497 1495 1493 1494 1495 1498 1500 1502 1502 1504 1505 1507 1510 1513 1516 1519 1523 1526 1529 1532 1534 1536 1538 1540 1541 1542 1544 1545 1546 1547 1548 1548 1549 1549 1549
1506 1504 1504 1506 1510 1509 1495 1491 1494 1496 1495 1490 1492 1493 1496 1499 1498 1497 1500 1502 1505 1507 1510 1513 1516 1520 1523 1526 1528 1531 1533 1535 1536 1538 1539 1541 1542 1543 1544 1545 1545 1546 1546 1546
1503 1504 1504 1503 1503 1495 1488 1493 1495 1499 1493 1490 1491 1492 1494 1495 1494 1496 1498 1500 1502 1505 1508 1511 1514 1517 1520 1522 1525 1528 1530 1531 1533 1535 1536 1537 1539 1540 1541 1542 1542 1542 1542 1542
1493 1497 1498 1498 1502 1498 1491 1492 1492 1489 1489 1490 1490 1491 1492 1493 1494 1495 1496 1498 1500 1502 1505 1508 1511 1514 1517 1519 1522 1524 1526 1528 1530 1532 1533 1534 1535 1536 1537 1538 1539 1539 1539 1539
1490 1489 1488 1490 1491 1489 1491 1490 1490 1490 1490 1490 1490 1490 1491 1492 1493 1494 1495 1497 1498 1501 1503 1506 1509 1511 1514 1516 1519 1521 1523 1525 1526 1528 1529 1531 1532 1533 1534 1534 1535 1535 1535 1535
1488 1492 1490 1489 1486 1488 1489 1489 1489 1489 1489 1489 1489 1489 1489 1490 1491 1492 1493 1495 1497 1499 1501 1503 1506 1508 1511 1513 1515 1518 1520 1521 1523 1524 1526 1527 1528 1529 1530 1530 1531 1531 1531 1531
1486 1490 1488 1486 1485 1486 1486 1487 1487 1487 1486 1486 1486 1486 1487 1488 1488 1489 1491 1492 1494 1496 1498 1501 1503 1505 1507 1509 1512 1514 1516 1517 1519 1521 1522 1523 1524 1525 1525 1525 1526 1526 1526 1526
1486 1486 1485 1483 1483 1484 1484 1485 1484 1484 1484 1484 1483 1484 1484 1485 1486 1487 1488 1490 1491 1493 1495 1497 1499 1501 1504 1506 1508 1510 1512 1513 1515 1517 1518 1519 1519 1520 1520 1521 1521 1520 1521 1521